sampling_time,wmo_synop_id,msc_id,stn_nam,stn_elev,lat,long,stn_typ,date_tm,rpt_typ,result_time,crnt_buoy_lat,crnt_buoy_lat_qa_summary,crnt_buoy_long,crnt_buoy_long_qa_summary,avg_air_temp_pst10mts,avg_air_temp_pst10mts_qa_summary,avg_sea_sfc_temp_pst10mts,avg_sea_sfc_temp_pst10mts_qa_summary,avg_batry_volt_pst10mts,avg_batry_volt_pst10mts_qa_summary,avg_solr_panl_crnt_pst10mts,avg_solr_panl_crnt_pst10mts_qa_summary,avg_wtr_lvl_snsr_volt_pst10mts,avg_wtr_lvl_snsr_volt_pst10mts_qa_summary,avg_wave_hgt_pst20mts,avg_wave_hgt_pst20mts_qa_summary,pk_wave_hgt_pst20mts,pk_wave_hgt_pst20mts_qa_summary,sig_wave_pd_pst20mts,sig_wave_pd_pst20mts_qa_summary,sig_wave_hgt_pst20mts,sig_wave_hgt_pst20mts_qa_summary,avg_max_wave_hgt_pst20mts,avg_max_wave_hgt_pst20mts_qa_summary,avg_max_wave_pd_pst20mts,avg_max_wave_pd_pst20mts_qa_summary,avg_wave_pd_pst20mts,avg_wave_pd_pst20mts_qa_summary,pk_wave_pd_pst20mts,pk_wave_pd_pst20mts_qa_summary,avg_stn_pres_pst10mts,avg_stn_pres_pst10mts_qa_summary,avg_wnd_spd_pst10mts,avg_wnd_spd_pst10mts_qa_summary,avg_wnd_dir_pst10mts,avg_wnd_dir_pst10mts_qa_summary,max_avg_wnd_spd_pst10mts,max_avg_wnd_spd_pst10mts_qa_summary,wnd_snsr_vert_disp,wnd_snsr_vert_disp_qa_summary,pres_tend_char_pst3hrs,pres_tend_char_pst3hrs_data_flag,pres_tend_amt_pst3hrs,pres_tend_amt_pst3hrs_data_flag,avg_mslp_pst10mts,avg_mslp_pst10mts_data_flag,avg_stn_pres_pst10mts_1,avg_stn_pres_pst10mts_2,avg_wnd_spd_pst10mts_1,avg_wnd_spd_pst10mts_2,avg_wnd_dir_pst10mts_1,avg_wnd_dir_pst10mts_2,max_avg_wnd_spd_pst10mts_1,max_avg_wnd_spd_pst10mts_2,wnd_snsr_vert_disp_1,wnd_snsr_vert_disp_2
2020-10-17T00:00:00Z,44490,9300300,West Bay of Fundy,0.0,44.66056,-66.3686,18,2020-10-17T00:00:00.000Z,108,2020-10-17T00:04:44.047Z,44.6656,100,-66.3638,100,13.3,100,11.9,100,12.8,100,0.0,100,3.5,100,0.6,100,1.4,100,4.7,100,0.9,100,1.1,100,4.7,100,3.9,100,5.1,100,1021.9,100,23.0,100,129,100,27.0,100,5.0,100,3,1,0.1,1,1021.9,1,1021.9,1021.9,23.0,23.0,129,131,27.0,26.6,5.0,4.0
2020-10-17T00:10:00Z,44490,9300300,West Bay of Fundy,0.0,44.66056,-66.3686,18,2020-10-17T00:10:00.000Z,110,2020-10-17T00:13:26.775Z,44.66557,100,-66.36372,100,13.8,100,12.5,100,12.8,100,0.0,100,3.5,100,,-1,,-1,,-1,,-1,,-1,,-1,,-1,,-1,1021.9,100,23.0,100,132,100,26.3,100,5.0,100,2,1,0.2,1,1021.9,1,1021.9,1021.9,23.0,22.7,132,135,26.3,25.6,5.0,4.0
2020-10-17T00:20:00Z,44490,9300300,West Bay of Fundy,0.0,44.66056,-66.3686,18,2020-10-17T00:20:00.000Z,110,2020-10-17T00:23:30.472Z,44.66557,100,-66.3637,100,13.2,100,11.9,100,12.8,100,0.0,100,3.5,100,,-1,,-1,,-1,,-1,,-1,,-1,,-1,,-1,1021.8,100,24.5,100,133,100,27.7,100,5.0,100,1,1,0.2,1,1021.8,1,1021.8,1021.8,24.5,23.8,133,136,27.7,27.4,5.0,4.0
2020-10-17T00:30:00Z,44490,9300300,West Bay of Fundy,0.0,44.66056,-66.3686,18,2020-10-17T00:30:00.000Z,110,2020-10-17T00:33:45.529Z,44.66557,100,-66.3637,100,13.0,100,11.9,100,12.8,100,0.0,100,3.5,100,,-1,,-1,,-1,,-1,,-1,,-1,,-1,,-1,1021.8,100,23.8,100,136,100,26.6,100,5.0,100,1,1,0.2,1,1021.8,1,1021.8,1021.8,23.8,23.0,136,138,26.6,26.6,5.0,4.0
2020-10-17T00:40:00Z,44490,9300300,West Bay of Fundy,0.0,44.66056,-66.3686,18,2020-10-17T00:40:00.000Z,110,2020-10-17T00:42:38.389Z,44.66553,100,-66.36368,100,12.9,100,11.8,100,12.8,100,0.0,100,3.5,100,,-1,,-1,,-1,,-1,,-1,,-1,,-1,,-1,1021.9,100,23.8,100,138,100,26.3,100,5.0,100,1,1,0.1,1,1021.9,1,1021.9,1021.8,23.8,22.7,138,141,26.3,25.9,5.0,4.0
2020-10-17T00:50:00Z,44490,9300300,West Bay of Fundy,0.0,44.66056,-66.3686,18,2020-10-17T00:50:00.000Z,110,2020-10-17T00:53:49.511Z,44.66555,100,-66.36365,100,12.8,100,11.8,100,12.7,100,0.0,100,3.5,100,,-1,,-1,,-1,,-1,,-1,,-1,,-1,,-1,1021.8,100,24.5,100,136,100,28.1,100,5.0,100,0,1,0.0,1,1021.8,1,1021.8,1021.7,24.5,23.8,136,138,28.1,28.1,5.0,4.0
2020-10-17T01:00:00Z,44490,9300300,West Bay of Fundy,0.0,44.66056,-66.3686,18,2020-10-17T01:00:00.000Z,108,2020-10-17T01:03:37.402Z,44.66557,100,-66.36368,100,12.7,100,11.8,100,12.7,100,0.0,100,3.5,100,0.6,100,1.4,100,4.3,100,1.0,100,1.2,100,4.4,100,3.6,100,4.8,100,1021.7,100,24.5,100,135,100,28.4,100,5.0,100,8,1,-0.1,1,1021.7,1,1021.7,1021.6,24.5,24.1,135,138,28.4,28.1,5.0,4.0
2020-10-17T01:10:00Z,44490,9300300,West Bay of Fundy,0.0,44.66056,-66.3686,18,2020-10-17T01:10:00.000Z,110,2020-10-17T01:15:50.093Z,44.66557,100,-66.3637,100,12.6,100,11.6,100,12.8,100,0.0,100,3.5,100,,-1,,-1,,-1,,-1,,-1,,-1,,-1,,-1,1021.7,100,24.1,100,135,100,26.6,100,5.0,100,8,1,-0.1,1,1021.7,1,1021.7,1021.6,24.1,23.8,135,138,26.6,27.0,5.0,4.0
2020-10-17T01:20:00Z,44490,9300300,West Bay of Fundy,0.0,44.66056,-66.3686,18,2020-10-17T01:20:00.000Z,110,2020-10-17T01:22:57.274Z,44.6656,100,-66.36377,100,12.6,100,11.5,100,12.8,100,0.0,100,3.5,100,,-1,,-1,,-1,,-1,,-1,,-1,,-1,,-1,1021.7,100,23.8,100,133,100,26.6,100,5.0,100,8,1,-0.1,1,1021.7,1,1021.7,1021.7,23.8,23.8,133,136,26.6,26.3,5.0,4.0
2020-10-17T01:30:00Z,44490,9300300,West Bay of Fundy,0.0,44.66056,-66.3686,18,2020-10-17T01:30:00.000Z,110,2020-10-17T01:32:52.535Z,44.6656,100,-66.3638,100,12.6,100,11.5,100,12.8,100,0.0,100,3.5,100,,-1,,-1,,-1,,-1,,-1,,-1,,-1,,-1,1021.7,100,23.8,100,131,100,27.4,100,5.0,100,8,1,-0.2,1,1021.7,1,1021.7,1021.6,23.8,23.8,131,133,27.4,27.4,5.0,4.0
2020-10-17T01:40:00Z,44490,9300300,West Bay of Fundy,0.0,44.66056,-66.3686,18,2020-10-17T01:40:00.000Z,110,2020-10-17T01:42:52.876Z,44.66562,100,-66.36381999999999,100,12.6,100,11.6,100,12.7,100,0.0,100,3.5,100,,-1,,-1,,-1,,-1,,-1,,-1,,-1,,-1,1021.6,100,23.8,100,130,100,27.4,100,5.0,100,8,1,-0.2,1,1021.6,1,1021.6,1021.6,23.8,24.1,130,133,27.4,28.1,5.0,4.0
2020-10-17T01:50:00Z,44490,9300300,West Bay of Fundy,0.0,44.66056,-66.3686,18,2020-10-17T01:50:00.000Z,110,2020-10-17T01:52:57.443Z,44.665620000000004,100,-66.3639,100,12.8,100,11.8,100,12.7,100,0.0,100,3.5,100,,-1,,-1,,-1,,-1,,-1,,-1,,-1,,-1,1021.4,100,27.4,100,127,100,33.1,100,5.0,100,8,1,-0.3,1,1021.4,1,1021.4,1021.4,27.4,27.7,127,130,33.1,33.5,5.0,4.0
2020-10-17T02:00:00Z,44490,9300300,West Bay of Fundy,0.0,44.66056,-66.3686,18,2020-10-17T02:00:00.000Z,108,2020-10-17T02:04:05.881Z,44.66568,100,-66.36402,100,12.8,100,11.8,100,12.7,100,0.0,100,3.5,100,0.5,100,1.4,100,4.3,100,0.8,100,1.0,100,4.4,100,3.4,100,4.7,100,1021.3,100,28.8,100,125,100,33.1,100,5.0,100,8,1,-0.5,1,1021.3,1,1021.3,1021.2,28.8,29.2,125,128,33.1,33.8,5.0,4.0
2020-10-17T02:10:00Z,44490,9300300,West Bay of Fundy,0.0,44.66056,-66.3686,18,2020-10-17T02:10:00.000Z,110,2020-10-17T02:16:06.502Z,44.66568,100,-66.36408,100,12.7,100,11.9,100,12.8,100,0.0,100,3.5,100,,-1,,-1,,-1,,-1,,-1,,-1,,-1,,-1,1021.2,100,28.1,100,123,100,32.0,100,5.0,100,8,1,-0.6,1,1021.2,1,1021.2,1021.1,28.1,28.8,123,126,32.0,32.0,5.0,4.0
2020-10-17T02:20:00Z,44490,9300300,West Bay of Fundy,0.0,44.66056,-66.3686,18,2020-10-17T02:20:00.000Z,110,2020-10-17T02:23:11.493Z,44.66563,100,-66.3639,100,12.8,100,11.9,100,12.7,100,0.0,100,3.5,100,,-1,,-1,,-1,,-1,,-1,,-1,,-1,,-1,1021.0,100,29.2,100,122,100,33.5,100,5.0,100,8,1,-0.8,1,1021.0,1,1021.0,1021.0,29.2,29.5,122,124,33.5,33.8,5.0,4.0
2020-10-17T02:30:00Z,44490,9300300,West Bay of Fundy,0.0,44.66056,-66.3686,18,2020-10-17T02:30:00.000Z,110,2020-10-17T02:33:09.225Z,44.66563,100,-66.36392,100,13.0,100,11.9,100,12.7,100,0.0,100,3.5,100,,-1,,-1,,-1,,-1,,-1,,-1,,-1,,-1,1020.9,100,29.2,100,126,100,33.1,100,5.0,100,8,1,-0.9,1,1020.9,1,1020.9,1020.9,29.2,29.9,126,129,33.1,33.5,5.0,4.0
2020-10-17T02:40:00Z,44490,9300300,West Bay of Fundy,0.0,44.66056,-66.3686,18,2020-10-17T02:40:00.000Z,110,2020-10-17T02:43:12.268Z,44.66558,100,-66.36385,100,13.0,100,11.9,100,12.7,100,0.0,100,3.5,100,,-1,,-1,,-1,,-1,,-1,,-1,,-1,,-1,1020.8,100,29.2,100,126,100,34.9,100,5.0,100,8,1,-1.0,1,1020.8,1,1020.8,1020.8,29.2,29.5,126,129,34.9,35.6,5.0,4.0
2020-10-17T02:50:00Z,44490,9300300,West Bay of Fundy,0.0,44.66056,-66.3686,18,2020-10-17T02:50:00.000Z,110,2020-10-17T02:53:22.188Z,44.6656,100,-66.36393000000001,100,13.0,100,11.9,100,12.7,100,0.0,100,3.5,100,,-1,,-1,,-1,,-1,,-1,,-1,,-1,,-1,1020.7,100,31.0,100,127,100,36.4,100,5.0,100,8,1,-1.1,1,1020.7,1,1020.7,1020.7,31.0,31.3,127,130,36.4,37.1,5.0,4.0
2020-10-17T03:00:00Z,44490,9300300,West Bay of Fundy,0.0,44.66056,-66.3686,18,2020-10-17T03:00:00.000Z,108,2020-10-17T03:03:24.065Z,44.66555,100,-66.36385,100,13.0,100,12.0,100,12.7,100,0.0,100,3.5,100,0.5,100,1.2,100,4.1,100,0.8,100,1.0,100,4.4,100,3.4,100,5.6,100,1020.8,100,29.9,100,130,100,34.2,100,5.0,100,8,1,-1.1,1,1020.8,1,1020.8,1020.7,29.9,30.2,130,133,34.2,34.6,5.0,4.0
2020-10-17T03:10:00Z,44490,9300300,West Bay of Fundy,0.0,44.66056,-66.3686,18,2020-10-17T03:10:00.000Z,110,2020-10-17T03:16:28.971Z,44.66552,100,-66.36393000000001,100,12.9,100,12.1,100,12.7,100,0.0,100,3.5,100,,-1,,-1,,-1,,-1,,-1,,-1,,-1,,-1,1020.8,100,29.2,100,131,100,33.5,100,5.0,100,8,1,-1.1,1,1020.8,1,1020.8,1020.7,29.2,29.2,131,134,33.5,34.6,5.0,4.0
2020-10-17T03:20:00Z,44490,9300300,West Bay of Fundy,0.0,44.66056,-66.3686,18,2020-10-17T03:20:00.000Z,110,2020-10-17T03:23:32.532Z,44.6655,100,-66.3641,100,12.9,100,12.1,100,12.7,100,0.0,100,3.5,100,,-1,,-1,,-1,,-1,,-1,,-1,,-1,,-1,1020.8,100,27.4,100,130,100,32.0,100,5.0,100,8,1,-1.0,1,1020.8,1,1020.8,1020.8,27.4,27.0,130,132,32.0,32.8,5.0,4.0
2020-10-17T03:30:00Z,44490,9300300,West Bay of Fundy,0.0,44.66056,-66.3686,18,2020-10-17T03:30:00.000Z,110,2020-10-17T03:33:28.731Z,44.66548,100,-66.36421999999999,100,13.0,100,12.1,100,12.7,100,0.0,100,3.5,100,,-1,,-1,,-1,,-1,,-1,,-1,,-1,,-1,1020.8,100,26.3,100,126,100,29.5,100,5.0,100,6,1,-1.0,1,1020.8,1,1020.8,1020.8,26.3,24.5,126,128,29.5,29.2,5.0,4.0
2020-10-17T03:40:00Z,44490,9300300,West Bay of Fundy,0.0,44.66056,-66.3686,18,2020-10-17T03:40:00.000Z,110,2020-10-17T03:43:39.227Z,44.66545,100,-66.36448,100,12.9,100,12.1,100,12.7,100,0.0,100,3.5,100,,-1,,-1,,-1,,-1,,-1,,-1,,-1,,-1,1020.9,100,25.6,100,127,100,29.2,100,5.0,100,6,1,-1.0,1,1020.9,1,1020.9,1020.8,25.6,23.0,127,129,29.2,27.7,5.0,4.0
2020-10-17T03:50:00Z,44490,9300300,West Bay of Fundy,0.0,44.66056,-66.3686,18,2020-10-17T03:50:00.000Z,110,2020-10-17T03:53:42.781Z,44.66538,100,-66.36471999999999,100,12.9,100,12.1,100,12.7,100,0.0,100,3.5,100,,-1,,-1,,-1,,-1,,-1,,-1,,-1,,-1,1020.9,100,24.1,100,126,100,27.7,100,5.0,100,5,1,-0.9,1,1020.9,1,1020.9,1020.8,24.1,22.3,126,128,27.7,26.6,5.0,4.0
2020-10-17T04:00:00Z,44490,9300300,West Bay of Fundy,0.0,44.66056,-66.3686,18,2020-10-17T04:00:00.000Z,108,2020-10-17T04:03:45.853Z,44.66525,100,-66.36513000000001,100,12.9,100,12.1,100,12.7,100,0.0,100,3.5,100,0.5,100,1.3,100,4.3,100,0.8,100,1.0,100,4.3,100,3.6,100,4.7,100,1020.9,100,24.5,100,123,100,28.4,100,5.0,100,5,1,-0.8,1,1020.9,1,1020.9,1020.8,24.5,23.4,123,125,28.4,27.0,5.0,4.0
2020-10-17T04:10:00Z,44490,9300300,West Bay of Fundy,0.0,44.66056,-66.3686,18,2020-10-17T04:10:00.000Z,110,2020-10-17T04:15:44.601Z,44.66492,100,-66.36601999999999,100,12.9,100,12.1,100,12.7,100,0.0,100,3.5,100,,-1,,-1,,-1,,-1,,-1,,-1,,-1,,-1,1020.8,100,23.0,100,125,100,26.6,100,5.0,100,5,1,-0.8,1,1020.8,1,1020.8,1020.8,23.0,22.0,125,127,26.6,25.9,5.0,4.0
2020-10-17T04:20:00Z,44490,9300300,West Bay of Fundy,0.0,44.66056,-66.3686,18,2020-10-17T04:20:00.000Z,110,2020-10-17T04:23:44.929Z,44.66415,100,-66.36686999999999,100,12.9,100,12.1,100,12.7,100,0.0,100,3.5,100,,-1,,-1,,-1,,-1,,-1,,-1,,-1,,-1,1020.8,100,21.6,100,127,100,24.5,100,5.0,100,6,1,-0.9,1,1020.8,1,1020.8,1020.8,21.6,20.9,127,129,24.5,24.1,5.0,4.0
2020-10-17T04:30:00Z,44490,9300300,West Bay of Fundy,0.0,44.66056,-66.3686,18,2020-10-17T04:30:00.000Z,110,2020-10-17T04:33:49.889Z,44.66332,100,-66.36697,100,12.9,100,12.1,100,12.7,100,0.0,100,3.5,100,,-1,,-1,,-1,,-1,,-1,,-1,,-1,,-1,1020.7,100,22.7,100,125,100,25.9,100,5.0,100,6,1,-1.0,1,1020.7,1,1020.7,1020.6,22.7,21.6,125,127,25.9,25.2,5.0,4.0
2020-10-17T04:40:00Z,44490,9300300,West Bay of Fundy,0.0,44.66056,-66.3686,18,2020-10-17T04:40:00.000Z,110,2020-10-17T04:43:47.451Z,44.66288,100,-66.36675,100,12.9,100,12.1,100,12.7,100,0.0,100,3.5,100,,-1,,-1,,-1,,-1,,-1,,-1,,-1,,-1,1020.7,100,22.0,100,126,100,24.5,100,5.0,100,6,1,-0.9,1,1020.7,1,1020.7,1020.6,22.0,21.6,126,128,24.5,24.1,5.0,4.0
2020-10-17T04:50:00Z,44490,9300300,West Bay of Fundy,0.0,44.66056,-66.3686,18,2020-10-17T04:50:00.000Z,110,2020-10-17T04:52:50.466Z,44.66268,100,-66.3666,100,12.8,100,12.1,100,12.7,100,0.0,100,3.5,100,,-1,,-1,,-1,,-1,,-1,,-1,,-1,,-1,1020.6,100,20.2,100,123,100,23.4,100,5.0,100,6,1,-0.8,1,1020.6,1,1020.6,1020.6,20.2,20.2,123,125,23.4,23.0,5.0,4.0
2020-10-17T05:00:00Z,44490,9300300,West Bay of Fundy,0.0,44.66056,-66.3686,18,2020-10-17T05:00:00.000Z,108,2020-10-17T05:02:49.259Z,44.66258,100,-66.36655,100,12.8,100,12.1,100,12.7,100,0.0,100,3.5,100,0.4,100,1.2,100,4.5,100,0.6,100,0.8,100,5.1,100,3.8,100,6.7,100,1020.4,100,20.2,100,122,100,22.3,100,5.0,100,6,1,-0.8,1,1020.4,1,1020.4,1020.4,20.2,20.2,122,124,22.3,22.3,5.0,4.0
2020-10-17T05:10:00Z,44490,9300300,West Bay of Fundy,0.0,44.66056,-66.3686,18,2020-10-17T05:10:00.000Z,110,2020-10-17T05:15:54.216Z,44.6625,100,-66.3665,100,12.8,100,12.1,100,12.7,100,0.0,100,3.5,100,,-1,,-1,,-1,,-1,,-1,,-1,,-1,,-1,1020.4,100,20.2,100,123,100,23.8,100,5.0,100,8,1,-0.8,1,1020.4,1,1020.4,1020.3,20.2,20.2,123,125,23.8,23.8,5.0,4.0
2020-10-17T05:20:00Z,44490,9300300,West Bay of Fundy,0.0,44.66056,-66.3686,18,2020-10-17T05:20:00.000Z,110,2020-10-17T05:24:01.413Z,44.66243,100,-66.36643000000001,100,12.9,100,12.1,100,12.7,100,0.0,100,3.5,100,,-1,,-1,,-1,,-1,,-1,,-1,,-1,,-1,1020.3,100,20.9,100,122,100,24.5,100,5.0,100,8,1,-0.7,1,1020.3,1,1020.3,1020.2,20.9,20.9,122,124,24.5,23.8,5.0,4.0
2020-10-17T05:30:00Z,44490,9300300,West Bay of Fundy,0.0,44.66056,-66.3686,18,2020-10-17T05:30:00.000Z,110,2020-10-17T05:33:04.549Z,44.66243,100,-66.36653000000001,100,12.9,100,12.0,100,12.7,100,0.0,100,3.5,100,,-1,,-1,,-1,,-1,,-1,,-1,,-1,,-1,1020.2,100,20.2,100,122,100,23.4,100,5.0,100,8,1,-0.7,1,1020.2,1,1020.2,1020.2,20.2,20.2,122,124,23.4,23.8,5.0,4.0
2020-10-17T05:40:00Z,44490,9300300,West Bay of Fundy,0.0,44.66056,-66.3686,18,2020-10-17T05:40:00.000Z,110,2020-10-17T05:43:05.931Z,44.6625,100,-66.36665,100,12.9,100,11.9,100,12.7,100,0.0,100,3.5,100,,-1,,-1,,-1,,-1,,-1,,-1,,-1,,-1,1020.1,100,20.9,100,122,100,25.2,100,5.0,100,8,1,-0.8,1,1020.1,1,1020.1,1020.1,20.9,21.2,122,125,25.2,25.2,5.0,4.0
2020-10-17T05:50:00Z,44490,9300300,West Bay of Fundy,0.0,44.66056,-66.3686,18,2020-10-17T05:50:00.000Z,110,2020-10-17T05:53:04.338Z,44.6625,100,-66.3667,100,13.0,100,11.9,100,12.7,100,0.0,100,3.5,100,,-1,,-1,,-1,,-1,,-1,,-1,,-1,,-1,1020.1,100,22.3,100,123,100,25.9,100,5.0,100,8,1,-0.7,1,1020.1,1,1020.1,1020.0,22.3,22.7,123,125,25.9,25.9,5.0,4.0
2020-10-17T06:00:00Z,44490,9300300,West Bay of Fundy,0.0,44.66056,-66.3686,18,2020-10-17T06:00:00.000Z,108,2020-10-17T06:03:13.879Z,44.66252,100,-66.3667,100,13.0,100,11.9,100,12.7,100,0.0,100,3.5,100,0.4,100,0.9,100,5.1,100,0.6,100,0.7,100,5.4,100,3.8,100,6.7,100,1020.0,100,22.7,100,121,100,25.9,100,5.0,100,8,1,-0.8,1,1020.0,1,1020.0,1019.9,22.7,22.7,121,123,25.9,25.9,5.0,4.0
2020-10-17T06:10:00Z,44490,9300300,West Bay of Fundy,0.0,44.66056,-66.3686,18,2020-10-17T06:10:00.000Z,110,2020-10-17T06:16:14.516Z,44.66253,100,-66.36676999999999,100,13.0,100,11.8,100,12.7,100,0.0,100,3.5,100,,-1,,-1,,-1,,-1,,-1,,-1,,-1,,-1,1019.9,100,22.3,100,117,100,26.3,100,5.0,100,8,1,-0.9,1,1019.9,1,1019.9,1019.9,22.3,22.3,117,119,26.3,26.3,5.0,4.0
2020-10-17T06:20:00Z,44490,9300300,West Bay of Fundy,0.0,44.66056,-66.3686,18,2020-10-17T06:20:00.000Z,110,2020-10-17T06:23:11.392Z,44.66247,100,-66.3667,100,12.8,100,11.8,100,12.7,100,0.0,100,3.5,100,,-1,,-1,,-1,,-1,,-1,,-1,,-1,,-1,1019.8,100,22.0,100,114,100,25.6,100,5.0,100,8,1,-1.0,1,1019.8,1,1019.8,1019.8,22.0,22.0,114,116,25.6,25.9,5.0,4.0
2020-10-17T06:30:00Z,44490,9300300,West Bay of Fundy,0.0,44.66056,-66.3686,18,2020-10-17T06:30:00.000Z,110,2020-10-17T06:33:19.705Z,44.66243,100,-66.36667,100,12.9,100,11.8,100,12.7,100,0.0,100,3.5,100,,-1,,-1,,-1,,-1,,-1,,-1,,-1,,-1,1019.7,100,22.7,100,118,100,25.6,100,5.0,100,8,1,-1.1,1,1019.7,1,1019.7,1019.7,22.7,22.7,118,121,25.6,25.6,5.0,4.0
2020-10-17T06:40:00Z,44490,9300300,West Bay of Fundy,0.0,44.66056,-66.3686,18,2020-10-17T06:40:00.000Z,110,2020-10-17T06:43:15.830Z,44.66247,100,-66.3667,100,12.9,100,11.7,100,12.6,100,0.0,100,3.5,100,,-1,,-1,,-1,,-1,,-1,,-1,,-1,,-1,1019.6,100,22.0,100,116,100,24.8,100,5.0,100,8,1,-1.2,1,1019.6,1,1019.6,1019.6,22.0,22.0,116,119,24.8,25.6,5.0,4.0
2020-10-17T06:50:00Z,44490,9300300,West Bay of Fundy,0.0,44.66056,-66.3686,18,2020-10-17T06:50:00.000Z,110,2020-10-17T06:53:25.981Z,44.66243,100,-66.36665,100,12.9,100,11.7,100,12.6,100,0.0,100,3.5,100,,-1,,-1,,-1,,-1,,-1,,-1,,-1,,-1,1019.7,100,21.2,100,118,100,23.8,100,5.0,100,8,1,-1.2,1,1019.7,1,1019.7,1019.7,21.2,21.2,118,120,23.8,23.8,5.0,4.0
2020-10-17T07:00:00Z,44490,9300300,West Bay of Fundy,0.0,44.66056,-66.3686,18,2020-10-17T07:00:00.000Z,108,2020-10-17T07:04:15.313Z,44.66235,100,-66.3665,100,12.9,100,11.7,100,12.6,100,0.0,100,3.5,100,0.4,100,1.0,100,4.6,100,0.6,100,0.7,100,4.8,100,3.6,100,3.3,100,1019.6,100,21.6,100,118,100,24.1,100,5.0,100,7,1,-1.3,1,1019.6,1,1019.6,1019.6,21.6,21.6,118,120,24.1,24.5,5.0,4.0
2020-10-17T07:10:00Z,44490,9300300,West Bay of Fundy,0.0,44.66056,-66.3686,18,2020-10-17T07:10:00.000Z,110,2020-10-17T07:16:35.466Z,44.66237,100,-66.3665,100,13.0,100,11.7,100,12.7,100,0.0,100,3.5,100,,-1,,-1,,-1,,-1,,-1,,-1,,-1,,-1,1019.5,100,22.0,100,120,100,25.2,100,5.0,100,6,1,-1.3,1,1019.5,1,1019.5,1019.5,22.0,22.0,120,123,25.2,25.2,5.0,4.0
2020-10-17T07:20:00Z,44490,9300300,West Bay of Fundy,0.0,44.66056,-66.3686,18,2020-10-17T07:20:00.000Z,110,2020-10-17T07:23:35.623Z,44.662420000000004,100,-66.3667,100,13.1,100,11.7,100,12.6,100,0.0,100,3.5,100,,-1,,-1,,-1,,-1,,-1,,-1,,-1,,-1,1019.5,100,23.8,100,121,100,27.0,100,5.0,100,6,1,-1.4,1,1019.5,1,1019.5,1019.4,23.8,23.8,121,123,27.0,27.4,5.0,4.0
2020-10-17T07:30:00Z,44490,9300300,West Bay of Fundy,0.0,44.66056,-66.3686,18,2020-10-17T07:30:00.000Z,110,2020-10-17T07:33:37.718Z,44.66248,100,-66.36681999999999,100,13.1,100,11.9,100,12.7,100,0.0,100,3.5,100,,-1,,-1,,-1,,-1,,-1,,-1,,-1,,-1,1019.4,100,24.1,100,119,100,26.6,100,5.0,100,6,1,-1.3,1,1019.4,1,1019.4,1019.4,24.1,24.1,119,121,26.6,26.3,5.0,4.0
2020-10-17T07:40:00Z,44490,9300300,West Bay of Fundy,0.0,44.66056,-66.3686,18,2020-10-17T07:40:00.000Z,110,2020-10-17T07:43:40.702Z,44.66243,100,-66.36675,100,13.1,100,11.9,100,12.6,100,0.0,100,3.5,100,,-1,,-1,,-1,,-1,,-1,,-1,,-1,,-1,1019.3,100,24.1,100,117,100,27.4,100,5.0,100,6,1,-1.3,1,1019.3,1,1019.3,1019.3,24.1,24.1,117,119,27.4,27.7,5.0,4.0
2020-10-17T07:50:00Z,44490,9300300,West Bay of Fundy,0.0,44.66056,-66.3686,18,2020-10-17T07:50:00.000Z,110,2020-10-17T07:53:44.628Z,44.66242,100,-66.3667,100,13.1,100,11.9,100,12.6,100,0.0,100,3.5,100,,-1,,-1,,-1,,-1,,-1,,-1,,-1,,-1,1019.4,100,23.8,100,119,100,26.6,100,5.0,100,6,1,-1.2,1,1019.4,1,1019.4,1019.4,23.8,23.8,119,121,26.6,26.6,5.0,4.0
2020-10-17T08:00:00Z,44490,9300300,West Bay of Fundy,0.0,44.66056,-66.3686,18,2020-10-17T08:00:00.000Z,108,2020-10-17T08:03:46.015Z,44.662420000000004,100,-66.36667,100,13.2,100,12.0,100,12.6,100,0.0,100,3.5,100,0.4,100,1.0,100,4.4,100,0.6,100,0.7,100,4.6,100,3.6,100,6.5,100,1019.4,100,24.1,100,116,100,27.4,100,5.0,100,6,1,-1.0,1,1019.4,1,1019.4,1019.4,24.1,24.1,116,118,27.4,27.4,5.0,4.0
2020-10-17T08:10:00Z,44490,9300300,West Bay of Fundy,0.0,44.66056,-66.3686,18,2020-10-17T08:10:00.000Z,110,2020-10-17T08:15:53.709Z,44.66237,100,-66.36653000000001,100,13.2,100,12.0,100,12.6,100,0.0,100,3.5,100,,-1,,-1,,-1,,-1,,-1,,-1,,-1,,-1,1019.4,100,23.8,100,116,100,27.4,100,5.0,100,6,1,-0.9,1,1019.4,1,1019.4,1019.4,23.8,23.8,116,118,27.4,27.7,5.0,4.0
2020-10-17T08:20:00Z,44490,9300300,West Bay of Fundy,0.0,44.66056,-66.3686,18,2020-10-17T08:20:00.000Z,110,2020-10-17T08:23:53.769Z,44.66232,100,-66.36643000000001,100,13.2,100,12.0,100,12.6,100,0.0,100,3.5,100,,-1,,-1,,-1,,-1,,-1,,-1,,-1,,-1,1019.4,100,23.8,100,115,100,27.4,100,5.0,100,6,1,-0.9,1,1019.4,1,1019.4,1019.4,23.8,23.8,115,117,27.4,28.1,5.0,4.0
2020-10-17T08:30:00Z,44490,9300300,West Bay of Fundy,0.0,44.66056,-66.3686,18,2020-10-17T08:30:00.000Z,110,2020-10-17T08:33:00.345Z,44.66232,100,-66.36628,100,13.2,100,12.0,100,12.6,100,0.0,100,3.5,100,,-1,,-1,,-1,,-1,,-1,,-1,,-1,,-1,1019.2,100,23.8,100,112,100,27.0,100,5.0,100,6,1,-1.0,1,1019.2,1,1019.2,1019.2,23.8,23.4,112,114,27.0,27.0,5.0,4.0
2020-10-17T08:40:00Z,44490,9300300,West Bay of Fundy,0.0,44.66056,-66.3686,18,2020-10-17T08:40:00.000Z,110,2020-10-17T08:42:58.485Z,44.66227,100,-66.36608000000001,100,13.2,100,12.0,100,12.6,100,0.0,100,3.5,100,,-1,,-1,,-1,,-1,,-1,,-1,,-1,,-1,1019.1,100,24.5,100,110,100,28.8,100,5.0,100,6,1,-1.0,1,1019.1,1,1019.1,1019.1,24.5,24.1,110,112,28.8,28.4,5.0,4.0
2020-10-17T08:50:00Z,44490,9300300,West Bay of Fundy,0.0,44.66056,-66.3686,18,2020-10-17T08:50:00.000Z,110,2020-10-17T08:52:58.646Z,44.66233,100,-66.36605,100,13.2,100,12.0,100,12.6,100,0.0,100,3.5,100,,-1,,-1,,-1,,-1,,-1,,-1,,-1,,-1,1019.2,100,24.8,100,109,100,29.5,100,5.0,100,6,1,-0.9,1,1019.2,1,1019.2,1019.1,24.8,24.1,109,111,29.5,28.4,5.0,4.0
2020-10-17T09:00:00Z,44490,9300300,West Bay of Fundy,0.0,44.66056,-66.3686,18,2020-10-17T09:00:00.000Z,108,2020-10-17T09:03:16.450Z,44.66237,100,-66.3657,100,13.2,100,12.0,100,12.6,100,0.0,100,3.5,100,0.4,100,1.0,100,3.8,100,0.6,100,0.7,100,3.8,100,3.4,100,3.3,100,1019.2,100,25.2,100,110,100,31.3,100,5.0,100,6,1,-0.8,1,1019.2,1,1019.2,1019.1,25.2,24.5,110,112,31.3,29.9,5.0,4.0
2020-10-17T09:10:00Z,44490,9300300,West Bay of Fundy,0.0,44.66056,-66.3686,18,2020-10-17T09:10:00.000Z,110,2020-10-17T09:16:00.649Z,44.66245,100,-66.36523000000001,100,13.3,100,12.0,100,12.6,100,0.0,100,3.5,100,,-1,,-1,,-1,,-1,,-1,,-1,,-1,,-1,1019.1,100,24.8,100,112,100,29.2,100,5.0,100,7,1,-0.8,1,1019.1,1,1019.1,1019.0,24.8,24.1,112,114,29.2,27.7,5.0,4.0
2020-10-17T09:20:00Z,44490,9300300,West Bay of Fundy,0.0,44.66056,-66.3686,18,2020-10-17T09:20:00.000Z,110,2020-10-17T09:24:04.551Z,44.66258,100,-66.36488,100,13.2,100,12.0,100,12.6,100,0.0,100,3.5,100,,-1,,-1,,-1,,-1,,-1,,-1,,-1,,-1,1019.0,100,23.8,100,111,100,28.8,100,5.0,100,8,1,-0.8,1,1019.0,1,1019.0,1018.9,23.8,23.0,111,113,28.8,28.8,5.0,4.0
2020-10-17T09:30:00Z,44490,9300300,West Bay of Fundy,0.0,44.66056,-66.3686,18,2020-10-17T09:30:00.000Z,110,2020-10-17T09:33:13.216Z,44.66292,100,-66.36447,100,13.2,100,12.0,100,12.6,100,0.0,100,3.5,100,,-1,,-1,,-1,,-1,,-1,,-1,,-1,,-1,1018.8,100,24.8,100,109,100,29.2,100,5.0,100,8,1,-0.9,1,1018.8,1,1018.8,1018.7,24.8,23.8,109,111,29.2,28.4,5.0,4.0
2020-10-17T09:40:00Z,44490,9300300,West Bay of Fundy,0.0,44.66056,-66.3686,18,2020-10-17T09:40:00.000Z,110,2020-10-17T09:43:14.982Z,44.66342,100,-66.36375,100,13.2,100,12.0,100,12.6,100,0.0,100,3.5,100,,-1,,-1,,-1,,-1,,-1,,-1,,-1,,-1,1018.7,100,23.0,100,108,100,28.1,100,5.0,100,8,1,-0.9,1,1018.7,1,1018.7,1018.7,23.0,22.0,108,110,28.1,27.0,5.0,4.0
2020-10-17T09:50:00Z,44490,9300300,West Bay of Fundy,0.0,44.66056,-66.3686,18,2020-10-17T09:50:00.000Z,110,2020-10-17T09:53:18.074Z,44.6642,100,-66.36345,100,13.1,100,12.0,100,12.6,100,0.0,100,3.5,100,,-1,,-1,,-1,,-1,,-1,,-1,,-1,,-1,1018.5,100,22.0,100,104,100,24.8,100,5.0,100,8,1,-1.2,1,1018.5,1,1018.5,1018.5,22.0,20.5,104,106,24.8,24.1,5.0,4.0
2020-10-17T10:00:00Z,44490,9300300,West Bay of Fundy,0.0,44.66056,-66.3686,18,2020-10-17T10:00:00.000Z,108,2020-10-17T10:03:20.201Z,44.66493,100,-66.36367,100,13.1,100,12.0,100,12.6,100,0.0,100,3.5,100,0.4,100,1.0,100,4.1,100,0.6,100,0.8,100,4.0,100,3.5,100,5.9,100,1018.4,100,22.0,100,106,100,25.2,100,5.0,100,8,1,-1.2,1,1018.4,1,1018.4,1018.4,22.0,20.5,106,108,25.2,23.8,5.0,4.0
2020-10-17T10:10:00Z,44490,9300300,West Bay of Fundy,0.0,44.66056,-66.3686,18,2020-10-17T10:10:00.000Z,110,2020-10-17T10:16:31.677Z,44.66513,100,-66.36386999999999,100,13.1,100,12.0,100,12.6,100,0.0,100,3.5,100,,-1,,-1,,-1,,-1,,-1,,-1,,-1,,-1,1018.3,100,22.3,100,103,100,26.3,100,5.0,100,8,1,-1.3,1,1018.3,1,1018.3,1018.2,22.3,20.2,103,105,26.3,24.5,5.0,4.0